1,427,280개(31200/71364페이지)
LECTURE
번호 제목 글쓴이 조회 날짜
803300 4 Secrets To Winning Poker In Texas Hold BurchVasquez6834 5 2022.02.16 10:22
803299 Need To Have A Extra Appealing 301 Redir HinrichsenGuy5640 10 2022.02.16 10:21
803298 Uzasadnienie Sądzie O Spłatę Ratalną Zad TempleHamilton9166 6 2022.02.16 10:21
803297 Search Engine Optimisation Agency Banbur 사진 SchultzAcosta1194 3 2022.02.16 10:21
803296 Wig Shop Alterations: 5 Actionable Sugge SvenningsenGallagher8841 5 2022.02.16 10:21
803295 Tips To Buy Audio Card For Gaming AbbottDwyer5554 5 2022.02.16 10:21
803294 Folding Poker Tables produced A Differen LoweDawson3744 5 2022.02.16 10:21
803293 XXX Japan XXXJapan Video MasseyGlud6633 3 2022.02.16 10:21
803292 Redesigning Doesn't Must Be A Chore VangBright8973 3 2022.02.16 10:20
803291 PostGraduate Essay Writing Service DouglasKaufman1775 5 2022.02.16 10:20
803290 Easy steps to Self-Care ShortAgger6556 11 2022.02.16 10:20
803289 Learn How To Play Poker - The Easy Way SalinasWiggins8088 5 2022.02.16 10:20
803288 I Liceum Ogólnokształcące Im. Henryka Si BendtsenKofoed2268 3 2022.02.16 10:20
803287 8 Actionable Recommendations on Mink Las LudvigsenSteffensen8409 5 2022.02.16 10:20
803286 kapan mesti stop dari permainan slots on 사진 BorregaardBowden8946 3 2022.02.16 10:20
803285 What Everyone Should Know About Fun Serv EskesenHermann9714 70 2022.02.16 10:20
803284 베트남 마사지 GunterRoach4717 4 2022.02.16 10:19
803283 Strategy Tips For Online Poker Tournamen WrennLynge8505 5 2022.02.16 10:19
803282 Hey Disgruntled YouTube television Subsc JoynerHarrell3509 1 2022.02.16 10:19
803281 The way to Lose Money With Ice Pack Gel SimpsonLykkegaard3985 1 2022.02.16 10:19